www.pogodaiklimat.ru
ПОГОДА в Загребе Максимир
Время
(UTC), дата
04 6.08
05 6.08
06 6.08
07 6.08
08 6.08
10 6.08
11 6.08
12 6.08
13 6.08
14 6.08
15 6.08
16 6.08
17 6.08
18 6.08
19 6.08
20 6.08
21 6.08
00 7.08
03 7.08
04 7.08
05 7.08
06 7.08
07 7.08
08 7.08
09 7.08
10 7.08
11 7.08
12 7.08
13 7.08
14 7.08
15 7.08
16 7.08
17 7.08
18 7.08
19 7.08
20 7.08
21 7.08
00 8.08
03 8.08
04 8.08
05 8.08
06 8.08
07 8.08
08 8.08
09 8.08
10 8.08
11 8.08
12 8.08
13 8.08
14 8.08
15 8.08
16 8.08
17 8.08
18 8.08
19 8.08
20 8.08
21 8.08
00 9.08
03 9.08
04 9.08
05 9.08
06 9.08
07 9.08
08 9.08
09 9.08
10 9.08
11 9.08
12 9.08
13 9.08
14 9.08
15 9.08
16 9.08
17 9.08
18 9.08
19 9.08
20 9.08
21 9.08
00 10.08
03 10.08
04 10.08
05 10.08
06 10.08
07 10.08
08 10.08
09 10.08
10 10.08
11 10.08
12 10.08
13 10.08
14 10.08
15 10.08
16 10.08
17 10.08
18 10.08
19 10.08
20 10.08
21 10.08
00 11.08
03 11.08
04 11.08
05 11.08
06 11.08
07 11.08
08 11.08
09 11.08
10 11.08
11 11.08
12 11.08
13 11.08
14 11.08
15 11.08
16 11.08
17 11.08
18 11.08
19 11.08
20 11.08
21 11.08
00 12.08
03 12.08
04 12.08
05 12.08
06 12.08
07 12.08
08 12.08
09 12.08
10 12.08
11 12.08
12 12.08
13 12.08
14 12.08
15 12.08
16 12.08
17 12.08
18 12.08
19 12.08
20 12.08
21 12.08
00 13.08
03 13.08
04 13.08
05 13.08
Ветер
(напр.,м/с)
Видим. Явления Облачность Т
(С)
Тd
(С)
f
(%)
Тe
(С)
Тes
(С)
Комфортность P
(гПа)
Po
(гПа)
Тmin
(С)
Tmax
(С)
R
(мм)
R24
(мм)
S
(см)
СВ 2 10 км 10/10 1000 м
[Sc]
+18.6 +15.1 80 +20 +20 тепло 1016.4 1001.4
СВ 2 10 км 10/10 1000 м
[Sc]
+18.3 +15.6 84 +19 +19 тепло 1016.9 1001.9
С 2 10 км 10/10 1000 м
[Sc]
+18.8 +15.6 82 +20 +20 тепло 1017.2 1002.2 +17.4 3 4.6
СВ 3 12 км слаб. дождь 10/10 600 м
[Sc]
+18.7 +15.5 82 +20 +20 тепло 1017.5 1002.5
СВ 3 15 км в посл. час дождь 10/10 1000 м
[Sc]
+20.1 +15.2 73 +23 +23 комфорт 1017.6 1002.7
СВ 3 15 км 10/10 1000 м
[Sc]
+21.6 +16.0 70 +25 +25 комфорт 1017.9 1003.1
СВ 3 15 км 10/10 1000 м
[Sc]
+21.9 +16.3 71 +26 +26 душно 1017.7 1002.9
СВ 2 15 км {дождь} 9/9 1000 м
[Sc]
+22.8 +17.6 72 +28 +30 душно 1017.7 1002.9 4.5
СВ 3 15 км 9/9 1000 м
[Sc]
+23.8 +17.9 70 +28 +29 душно 1017.5 1002.8
СВ 4 15 км 9/9 1000 м
[Cu Sc]
+25.0 +18.4 67 +30 +30 душно 1017.0 1002.4
С 3 15 км 9/5 1000 м
[Cu Sc Ac trans]
+24.5 +18.0 67 +29 +30 душно 1017.4 1002.7
СВ 2 12 км 8/4 1000 м
[Cu Sc Ac trans]
+24.5 +18.4 69 +29 +30 душно 1017.5 1002.8
С 2 12 км 8/3 1000 м
[Sc Ac trans Ci sp]
+24.2 +18.8 72 +29 +29 душно 1017.5 1002.8
С 1 12 км 8/3 1000 м
[Sc Ac trans Ci sp]
+23.0 +18.8 77 +29 +29 очень
душно
1017.6 1002.9 +25.1 0.0
СЗ 1 12 км 6/0
[Ac trans Ci sp]
+21.6 +18.4 82 +26 +26 душно 1017.7 1002.9
СЗ 1 12 км 3/0
[Ci sp]
+20.6 +18.1 86 +26 +26 душно 1018.4 1003.5
З 1 12 км 1/0
[Ci sp]
+21.0 +17.9 82 +26 +26 душно 1018.3 1003.5
С 1 15 км 1/0
[Ac trans]
+21.8 +17.5 77 +26 +26 душно 1017.7 1002.9
штиль 0 15 км ясно +18.0 +16.9 93 +18 +18 тепло 1017.9 1002.9
З 1 15 км 3/0
[Ac trans Ci fib]
+17.0 +16.5 97 +18 +18 тепло 1018.1 1003.0
штиль 0 15 км 3/0
[Ac trans]
+17.8 +17.1 96 +18 +19 тепло 1018.1 1003.1
штиль 0 15 км 5/0
[Ac trans Ci fib]
+20.5 +18.2 87 +24 +27 комфорт 1018.1 1003.2 +17.0
Ю 1 25 км 8/5 1500 м
[Cu Sc Ac trans Ci fib]
+23.5 +17.7 70 +28 +30 душно 1018.1 1003.4
Ю 1 20 км 1/1 1000 м
[Cu hum]
+26.0 +18.7 64 +31 +42 очень
душно
1018.0 1003.4
СВ 4 25 км 1/1 1000 м
[Cu hum]
+26.7 +17.9 59 +31 +39 душно 1018.0 1003.4
СВ 4 25 км 8/0
[Ac trans Ci fib]
+27.6 +18.1 56 +32 +39 очень
душно
1017.9 1003.4
СВ 3 25 км 6/1 1000 м
[Cu hum Ci fib]
+28.4 +18.5 55 +33 +44 очень
душно
1017.9 1003.4
СВ 4 25 км 3/0
[Ci fib]
+29.0 +18.7 54 +34 +44 очень
душно
1017.6 1003.2
С 3 25 км 6/1 1000 м
[Cu med, cong Ci fib]
+29.4 +18.4 52 +34 +43 очень
душно
1017.6 1003.2
СВ 4 25 км 4/1 1000 м
[Cu med, cong Ci fib]
+29.8 +18.3 50 +35 +40 очень
душно
1017.2 1002.8
С 3 25 км 3/1 1000 м
[Cu med, cong Ci fib]
+29.7 +18.7 52 +35 +39 очень
душно
1017.0 1002.6
СВ 3 20 км 3/1 1000 м
[Cu med, cong Ci fib]
+29.4 +18.4 52 +34 +36 очень
душно
1017.0 1002.6
СВ 3 20 км 3/0
[Ci fib]
+28.7 +18.2 53 +33 +34 очень
душно
1017.1 1002.6
СЗ 1 20 км 5/1 1000 м
[Cu med, cong Ci fib]
+27.0 +19.2 62 +32 +32 очень
душно
1017.2 1002.7 +29.9
СЗ 1 20 км 5/3 1000 м
[Cu med, cong Ci fib]
+24.6 +19.1 71 +30 +30 очень
душно
1017.6 1002.9
СЗ 1 15 км 3/1 1000 м
[Sc Ci fib]
+22.2 +19.5 85 +28 +28 душно 1017.8 1003.0
СЗ 1 15 км ясно +22.3 +18.2 78 +27 +27 душно 1017.7 1002.9
штиль 0 15 км ясно +20.9 +17.7 82 +25 +25 комфорт 1017.7 1002.9
штиль 0 15 км ясно +18.9 +17.2 90 +20 +20 тепло 1017.7 1002.8
СЗ 1 15 км 1/0
[Ac trans]
+20.3 +16.4 78 +24 +24 комфорт 1018.0 1003.1
З 1 20 км 1/1 1000 м
[Cu med, cong]
+20.6 +17.8 84 +25 +26 комфорт 1017.7 1002.8
ЮВ 2 20 км 8/6 1000 м
[Cu Sc Ac trans]
+21.6 +19.0 85 +26 +27 душно 1018.2 1003.4 +18.9
Ю 2 25 км 4/4 1500 м
[Cu Sc]
+22.3 +18.5 79 +28 +31 душно 1018.8 1004.0
Ю 1 25 км 1/1 1500 м
[Cu Sc]
+24.3 +18.3 69 +29 +39 душно 1018.8 1004.1
СВ 2 25 км ясно +27.1 +18.2 58 +32 +45 очень
душно
1018.6 1004.0
С 2 30 км ясно +28.3 +17.9 53 +33 +48 очень
душно
1018.2 1003.7
В 3 30 км ясно +29.1 +18.3 52 +34 +48 очень
душно
1018.1 1003.7
В 3 30 км ясно +29.7 +18.7 52 +35 +48 очень
душно
1017.9 1003.5
С 1 30 км 1/1 1000 м
[Cu hum]
+30.3 +19.1 51 +36 +49 очень
душно
1017.7 1003.3
СВ 2 30 км 1/1 1000 м
[Cu hum]
+30.3 +19.3 52 +36 +45 очень
душно
1017.4 1003.0
С 2 30 км 1/1 1000 м
[Cu hum]
+30.3 +19.9 54 +37 +42 очень
душно
1017.3 1002.9
СВ 2 30 км ясно +30.4 +19.7 53 +37 +39 очень
душно
1017.0 1002.6
СВ 2 30 км ясно +29.6 +18.9 53 +35 +36 очень
душно
1016.7 1002.3
СЗ 1 25 км ясно +26.4 +21.8 76 +34 +34 очень
душно
1016.8 1002.3 +30.8
СЗ 1 20 км ясно +24.3 +20.5 79 +30 +30 очень
душно
1017.5 1002.8
СЗ 1 20 км ясно +22.8 +19.8 83 +29 +29 очень
душно
1017.4 1002.7
СЗ 1 20 км ясно +22.1 +19.1 83 +28 +28 душно 1017.5 1002.7
СЗ 1 20 км ясно +20.2 +18.2 88 +25 +25 комфорт 1017.1 1002.2
СЗ 1 15 км ясно +18.9 +17.6 92 +21 +21 комфорт 1017.0 1002.1
СЗ 1 20 км ясно +18.5 +17.2 92 +20 +20 тепло 1017.1 1002.1
штиль 0 30 км ясно +19.5 +17.6 89 +22 +23 комфорт 1017.1 1002.2
ЮВ 1 25 км ясно +22.6 +18.7 79 +28 +32 душно 1016.9 1002.2 +18.4
В 1 20 км ясно +24.8 +19.8 74 +30 +38 душно 1016.9 1002.3
Ю 1 25 км ясно +26.2 +19.8 68 +32 +44 очень
душно
1016.9 1002.3
Ю 1 20 км 1/1 1000 м
[Cu hum]
+28.8 +20.2 60 +35 +49 очень
душно
1016.7 1002.3
Ю 1 25 км 1/1 1000 м
[Cu hum]
+29.7 +19.7 55 +36 +52 опасность
солнечного
удара
1016.5 1002.1
В 2 30 км 1/1 1000 м
[Cu med, cong]
+31.0 +17.4 44 +35 +50 очень
душно
1016.1 1001.8
СВ 1 25 км 1/1 1000 м
[Cu med, cong]
+31.2 +17.6 44 +35 +51 опасность
солнечного
удара
1015.6 1001.3
С 2 25 км 1/1 1000 м
[Cu med, cong]
+31.5 +16.7 41 +35 +46 очень
душно
1015.2 1000.9
СВ 2 25 км 3/3 1000 м
[Cu med, cong]
+31.4 +16.2 40 +34 +41 душно 1015.0 1000.7
С 2 25 км 3/1 1000 м
[Cu med, cong Ac trans]
+31.6 +16.7 41 +35 +39 очень
душно
1014.7 1000.4
В 2 20 км 3/1 1000 м
[Cu med, cong Ci sp]
+31.2 +16.9 42 +35 +37 очень
душно
1014.3 1000.0
СВ 2 20 км 3/1 1000 м
[Cu med, cong Ci fib]
+30.4 +17.1 45 +34 +35 очень
душно
1014.1 999.8
С 1 20 км ясно +26.4 +20.6 70 +33 +33 очень
душно
1014.6 1000.1 +31.7
С 1 20 км ясно +24.3 +20.0 77 +30 +30 очень
душно
1014.9 1000.3
С 1 20 км ясно +23.1 +19.7 81 +30 +30 очень
душно
1015.2 1000.5
С 1 20 км ясно +22.8 +19.5 82 +29 +29 очень
душно
1015.0 1000.3
СЗ 1 15 км ясно +20.4 +18.1 87 +25 +25 комфорт 1015.1 1000.3
СЗ 1 15 км ясно +18.9 +17.6 92 +21 +21 комфорт 1015.1 1000.2
СЗ 1 15 км ясно +18.6 +17.3 92 +21 +21 комфорт 1015.2 1000.3
С 1 25 км ясно +19.4 +17.5 89 +23 +24 комфорт 1015.4 1000.5
В 1 30 км ясно +22.3 +18.5 79 +28 +31 душно 1015.4 1000.7 +18.3
СВ 1 25 км ясно +25.1 +18.7 68 +30 +37 душно 1015.6 1001.0
штиль 0 25 км ясно +27.2 +19.6 63 +33 +46 очень
душно
1015.5 1001.0
ЮВ 1 25 км 1/1 1000 м
[Cu hum]
+28.1 +18.9 57 +33 +47 очень
душно
1015.5 1001.0
Ю 1 25 км 1/1 1000 м
[Cu med, cong]
+29.5 +19.5 55 +35 +52 опасность
солнечного
удара
1015.1 1000.7
Ю 1 20 км 1/1 1000 м
[Cu med, cong]
+30.4 +18.9 50 +36 +53 опасность
солнечного
удара
1015.0 1000.7
ЮВ 1 20 км 3/3 1000 м
[Cu med, cong]
+30.7 +18.6 48 +36 +48 очень
душно
1014.8 1000.5
Ю 1 20 км 3/3 1000 м
[Cu med, cong]
+31.6 +15.1 37 +34 +44 душно 1014.4 1000.1
ЮВ 2 20 км 3/3 1000 м
[Cu med, cong]
+31.2 +15.0 37 +33 +40 жарко 1014.1 999.8
ЮВ 1 20 км 1/1 1000 м
[Cu med, cong]
+31.0 +18.8 48 +36 +42 очень
душно
1014.0 999.7
ЮВ 1 20 км 1/1 1000 м
[Cu med, cong]
+30.6 +17.2 45 +35 +37 очень
душно
1013.4 999.1
ЮВ 2 20 км 1/0
[Ci fib]
+29.7 +18.1 50 +34 +35 очень
душно
1013.5 999.1
С 1 20 км 3/0
[Ci fib]
+26.2 +21.3 74 +33 +33 очень
душно
1013.7 999.2 +32.2
С 1 20 км 3/0
[Ci fib]
+24.3 +20.0 77 +30 +30 очень
душно
1014.4 999.8
С 1 20 км ясно +23.2 +19.2 78 +30 +30 очень
душно
1015.0 1000.3
СЗ 1 20 км ясно +22.6 +18.9 80 +28 +28 душно 1015.1 1000.4
С 1 20 км ясно +21.0 +18.9 88 +27 +27 душно 1015.5 1000.7
С 1 20 км 1/0
[Ac trans]
+19.8 +18.9 95 +24 +24 комфорт 1015.3 1000.4
штиль 0 15 км 3/0
[Ac trans]
+19.4 +18.5 95 +22 +22 комфорт 1015.6 1000.7
СЗ 1 15 км 3/0
[Ac trans]
+20.0 +18.8 93 +24 +25 комфорт 1015.9 1001.0
штиль 0 15 км 3/0
[Ac trans Ci fib]
+23.2 +19.2 78 +30 +33 очень
душно
1016.0 1001.3 +19.1
ЮВ 1 15 км 5/0
[Ci fib]
+25.4 +20.0 72 +31 +38 очень
душно
1016.0 1001.4
В 1 15 км 8/1 1000 м
[Cu med, cong Ci fib]
+27.5 +20.6 66 +34 +43 очень
душно
1016.3 1001.8
ЮЗ 1 15 км 6/1 1000 м
[Cu med, cong Ci fib]
+28.9 +20.6 61 +36 +48 очень
душно
1016.1 1001.7
ЮВ 1 12 км 6/1 1000 м
[Cu med, cong Ci fib]
+29.3 +20.4 59 +36 +50 очень
душно
1016.1 1001.7
ЮВ 2 15 км 6/3 1000 м
[Cu med, cong Ci fib]
+30.2 +18.3 49 +35 +45 очень
душно
1016.1 1001.7
В 1 15 км 5/3 1000 м
[Cu med, cong Ac trans Ci fib]
+30.0 +18.9 51 +35 +46 очень
душно
1015.9 1001.5
ЮВ 2 10 км гроза без осадков 9/8 1000 м
[Cb cap Ac trans Ci fib]
+29.9 +18.1 49 +34 +36 очень
душно
1015.8 1001.4
СЗ 1 15 км в посл. час гроза {дождь} 9/6 1000 м
[Cu Sc Ac trans Ci sp]
+27.3 +22.8 76 +36 +39 очень
душно
1015.6 1001.1
С 1 15 км {гроза, дождь} 10/0
[Ac As Ci sp]
+27.0 +22.0 74 +35 +39 очень
душно
1015.2 1000.7
СЗ 1 15 км 9/0
[Ac trans]
+27.1 +22.7 77 +36 +37 очень
душно
1015.3 1000.8
С 2 15 км 9/1 1000 м
[Cu med, cong Ac trans Ci sp]
+26.8 +20.6 69 +33 +34 очень
душно
1015.2 1000.7
СВ 2 15 км {гроза, дождь} 8/1 1000 м
[Cu med, cong Ac trans Ci sp]
+26.2 +19.6 67 +32 +32 очень
душно
1015.3 1000.8 +31.0 0.2
СВ 2 15 км 8/5 1000 м
[Cu Sc Ac trans]
+25.3 +19.4 70 +31 +31 очень
душно
1016.4 1001.8
СЗ 1 15 км 8/5 1000 м
[Cu Sc Ac trans]
+24.7 +19.4 72 +30 +30 очень
душно
1016.5 1001.9
СВ 1 15 км 8/4 1000 м
[Sc Ac trans]
+23.7 +19.6 78 +29 +29 душно 1016.7 1002.0
С 1 15 км ясно +20.9 +18.9 88 +26 +26 душно 1016.5 1001.7
штиль 0 15 км 8/4 1000 м
[Sc Ac trans]
+19.2 +18.2 94 +21 +21 комфорт 1017.0 1002.1
штиль 0 15 км 8/4 1000 м
[Cu Sc Ac trans]
+19.3 +18.4 95 +21 +21 комфорт 1017.2 1002.3
С 1 20 км 3/1 1000 м
[Cu med, cong Ac trans Ci fib]
+19.9 +18.5 92 +24 +25 комфорт 1017.4 1002.5
Ю 1 20 км 4/0
[Ac trans Ci fib]
+21.7 +18.5 82 +26 +29 душно 1017.5 1002.7 +19.1 0.2
ЮВ 1 25 км 5/0
[Ci fib]
+24.9 +19.0 70 +30 +36 душно 1017.4 1002.8
СВ 2 25 км 6/1 1000 м
[Cu hum Ci sp]
+25.1 +18.1 65 +29 +37 душно 1017.5 1002.9
В 2 30 км 5/1 1000 м
[Cu hum Ci sp]
+26.3 +18.4 62 +31 +42 душно 1017.6 1003.0
В 3 30 км 4/1 1000 м
[Cu med, cong Ci sp]
+27.1 +19.7 64 +33 +44 очень
душно
1017.5 1003.0
В 2 30 км 3/1 1000 м
[Cu med, cong Ci sp]
+28.0 +19.1 58 +33 +47 очень
душно
1017.4 1002.9
СВ 2 30 км 3/1 1000 м
[Cu med, cong Ci sp]
+28.4 +18.5 55 +33 +46 очень
душно
1017.1 1002.6 0.2
В 2 30 км 3/3 1000 м
[Cu med, cong Ci sp]
+29.4 +18.5 52 +34 +43 очень
душно
1016.4 1002.0
В 3 30 км 3/3 1000 м
[Cu med, cong Ci sp]
+29.4 +18.2 51 +34 +39 очень
душно
1015.9 1001.5
СВ 3 30 км 3/3 1000 м
[Cu med, cong Ci sp]
+29.0 +18.7 54 +34 +37 очень
душно
1015.9 1001.5
В 1 30 км 3/1 1000 м
[Cu med, cong Ci sp]
+28.9 +18.3 53 +34 +36 очень
душно
1015.9 1001.5
СВ 2 25 км 3/1 1000 м
[Cu med, cong Ci sp]
+28.0 +18.4 56 +33 +33 очень
душно
1015.9 1001.4
В 2 25 км 3/1 1000 м
[Cu med, cong Ci sp]
+27.2 +18.6 59 +32 +32 очень
душно
1015.9 1001.4 +29.9
СЗ 1 20 км ясно +23.8 +20.7 83 +30 +30 очень
душно
1016.8 1002.1
С 1 15 км ясно +22.8 +20.0 84 +29 +29 очень
душно
1017.0 1002.3
С 1 15 км ясно +22.2 +19.4 84 +28 +28 душно 1017.1 1002.3
СЗ 1 15 км ясно +21.0 +18.9 88 +27 +27 душно 1016.7 1001.9
С 1 15 км ясно +19.6 +18.4 93 +23 +23 комфорт 1016.5 1001.6
С 1 20 км 1/0
[Ci fib]
+19.2 +18.3 95 +22 +22 комфорт 1016.4 1001.5
штиль 0 25 км 1/0
[Ci fib]
+20.3 +18.6 90 +24 +25 комфорт 1016.4 1001.6
Местоположение метеостанции Загреб Максимир (Хорватия): широта 45.82 долгота 16.03 высота над уровнем моря 128 м.
В архиве по умолчанию представлена погода в Загребе Максимир за последнюю неделю. Архивные данные за месяц целиком и за предыдущие месяцы, начиная с января 2011 года, Вы можете получить, выбрав интересующий диапазон дат из раскрывающегося списка и нажав кнопку "Найти!".
*Определитесь, кто Вы:
Внимание! Время в таблицах - всемирное. Для получения местного времени необходимо прибавить поправку, которая равна 1 ч.
Смотрите также архив погоды в соседних городах и на ближайших метеорологических станциях:
Партнеры нашего сайта:      
Пояснения к столбцам:
  • Ветер - указаны скорость ветра в м/с - средняя за 10 мин, порывы в срок и между сроками (в фигурных скобках) и направление, откуда дует ветер: С - северный,
  • СВ - северо-восточный, В - восточный, ЮВ - юго-восточный, Ю - южный, ЮЗ - юго-западный, З - западный, СЗ - северо-западный.
  • Видимость - горизонтальная дальность видимости в метрах или километрах. При видимости от 1 до 10 км при отсутствии осадков обычно наблюдается дымка, при ухудшении видимости до 1 км и менее - туман. В сухую погоду видимость может ухудшаться дымом, пылью или мглою.
  • Явления - указаны атмосферные явления, наблюдавшиеся в срок или в последний час перед сроком; фигурными скобками обозначены явления, наблюдавшиеся между сроками (за 1-3 часа до срока); квадратными скобками обозначены град или гололедные отложения с указанием их диаметра в мм.
  • Облачность - указаны через наклонную черту общая и нижняя облачность в баллах и высота нижней границы облаков в метрах; квадратными скобками обозначены формы облаков: Ci - перистые, Cs - перисто-слоистые, Cc - перисто-кучевые, Ac - высококучевые, As - высокослоистые, Sc - слоисто-кучевые, Ns - слоисто-дождевые, Cu - кучевые, Cb - кучево-дождевые. Подробнее классификацию облаков см. в Атласе облаков (PDF).
  • T - Температура воздуха - температура, измеренная на высоте 2 м над землей.
  • Td - Температура точки росы - температура, при понижении до которой содержащийся в воздухе водяной пар достигнет насыщения.
  • f - Относительная влажность воздуха - влажноcть воздуха, измеренная на высоте 2 м над землей.
  • Te - Эффективная температура - температура, которую ощущает одетый по сезону человек в тени. Характеристика душности погоды. При расчете учитывается влияние влажности воздуха и скорости ветра на теплоощущения человека.
  • Tes - Эффективная температура на солнце - температура, которую ощущает человек, с поправкой на солнечный нагрев. Характеристика знойности погоды. Зависит от высоты солнца над горизонтом, облачности и скорости ветра. Ночью, в пасмурную погоду, а также при ветре 12 м/с и более поправка равна нулю.
  • P - Атмосферное давление - приведенное к уровню моря атмосферное давление.
  • Po - Атмосферное давление - измеренное на уровне метеостанции атмосферное давление.
  • Tmin - Минимальная температура - минимум температуры воздуха на высоте 2 м над землей.
  • Tmax - Максимальная температура - максимум температуры воздуха на высоте 2 м над землей.
  • R - Количество осадков - Количество выпавших осадков за период времени, мм. При наведении курсора мыши на число - период времени, за который выпало указанное количество осадков.
  • R24 - Количество осадков - Количество выпавших осадков за 24 часа, мм.
  • S - Снежный покров - Высота снежного покрова, см. При наведении курсора мыши на число - состояние снежного покрова и степень покрытия местности в баллах.